FW4179 Weather Reports


time (UTC)temp
F
wind
direction
speed
knots
gust
knots
rain 1hr
in
rain 24hr
in
rain mn
in
humidity
%
barometer
mb
20200531081625 60 32 0.0 0.0 0.00 0.00 0.00 85 1019.8
20200531081036 60 32 0.0 0.0 0.00 0.00 0.00 85 1019.8
20200531080530 60 32 0.0 0.0 0.00 0.00 0.00 84 1019.8
20200531080119 60 32 0.0 0.0 0.00 0.00 0.00 84 1019.8
20200531075030 61 32 0.0 0.0 0.00 0.00 0.00 83 1019.7
20200531074603 61 32 0.0 0.0 0.00 0.00 0.00 83 1019.8
20200531074027 61 32 0.0 0.0 0.00 0.00 0.00 83 1019.7
20200531073533 61 32 0.0 0.0 0.00 0.00 0.00 83 1019.7
20200531073026 61 32 0.0 0.0 0.00 0.00 0.00 83 1019.6
20200531072531 61 32 0.0 0.0 0.00 0.00 0.00 83 1019.6
20200531072037 61 32 0.0 0.0 0.00 0.00 0.00 83 1019.6
20200531071647 61 32 0.0 0.0 0.00 0.00 0.00 82 1019.7
20200531071035 61 32 0.0 0.0 0.00 0.00 0.00 82 1019.6
20200531070524 62 32 0.0 0.0 0.00 0.00 0.00 82 1019.5
20200531070035 62 32 0.0 1.7 0.00 0.00 0.00 82 1019.6
20200531065523 62 32 0.0 1.7 0.00 0.00 0.00 82 1019.6
20200531065022 62 32 0.0 2.6 0.00 0.00 0.00 81 1019.7
20200531064554 62 32 0.9 2.6 0.00 0.00 0.00 81 1019.6
20200531064032 62 32 0.0 1.7 0.00 0.00 0.00 81 1019.7
20200531063520 62 32 0.0 2.6 0.00 0.00 0.00 81 1019.6
20200531063020 63 32 0.9 2.6 0.00 0.00 0.00 80 1019.6
20200531062524 63 32 0.9 2.6 0.00 0.00 0.00 80 1019.7
20200531062024 63 32 0.9 2.6 0.00 0.00 0.00 80 1019.7
20200531061535 63 34 0.9 2.6 0.00 0.00 0.00 80 1019.7
20200531061017 63 34 0.9 2.6 0.00 0.00 0.00 80 1019.7
20200531060516 63 38 0.9 3.5 0.00 0.00 0.00 80 1019.6
20200531060021 63 38 0.9 3.5 0.00 0.00 0.00 80 1019.5
20200531055522 63 34 0.9 3.5 0.00 0.00 0.00 80 1019.5
20200531055016 63 34 0.9 3.5 0.00 0.00 0.00 80 1019.6
20200531054533 64 33 0.9 2.6 0.00 0.00 0.00 79 1019.7
20200531054013 64 32 0.9 2.6 0.00 0.00 0.00 79 1019.7
20200531053513 64 34 0.9 2.6 0.00 0.00 0.00 79 1019.7
20200531053035 64 28 0.9 2.6 0.00 0.00 0.00 79 1019.7
20200531052512 64 24 0.9 2.6 0.00 0.00 0.00 78 1019.7
20200531052011 64 34 0.9 2.6 0.00 0.00 0.00 79 1019.6
20200531051512 64 38 0.9 3.5 0.00 0.00 0.00 78 1019.7
20200531051019 65 35 0.9 2.6 0.00 0.00 0.00 78 1019.7
20200531050508 65 34 0.9 3.5 0.00 0.00 0.00 78 1019.8
20200531050008 65 34 0.9 3.5 0.00 0.00 0.00 78 1019.8
20200531045508 65 34 1.7 3.5 0.00 0.00 0.00 78 1019.7
20200531045007 65 38 1.7 3.5 0.00 0.00 0.00 78 1019.6
20200531044520 65 35 1.7 3.5 0.00 0.00 0.00 77 1019.7
20200531044011 65 27 0.9 3.5 0.00 0.00 0.00 77 1019.7
20200531043506 65 32 1.7 3.5 0.00 0.00 0.00 77 1019.7
20200531043019 65 32 1.7 3.5 0.00 0.00 0.00 77 1019.7
20200531042515 65 36 0.9 3.5 0.00 0.00 0.00 78 1019.6
20200531042008 66 38 0.9 3.5 0.00 0.00 0.00 77 1019.6
20200531041508 66 22 0.9 3.5 0.00 0.00 0.00 77 1019.6
20200531041006 66 30 0.9 3.5 0.00 0.00 0.00 76 1019.6
20200531040508 66 9 0.0 2.6 0.00 0.00 0.00 76 1019.6
20200531040019 66 338 0.0 0.0 0.00 0.00 0.00 76 1019.6
20200531035514 66 329 0.0 0.0 0.00 0.00 0.00 76 1019.6
20200531035007 66 315 0.0 0.0 0.00 0.00 0.00 76 1019.7
20200531034506 66 315 0.0 1.7 0.00 0.00 0.00 76 1019.7
20200531034004 66 309 0.0 1.7 0.00 0.00 0.00 76 1019.6
20200531033505 66 307 0.0 0.0 0.00 0.00 0.00 76 1019.6
20200531033011 66 307 0.0 0.0 0.00 0.00 0.00 76 1019.6
20200531032504 66 307 0.0 0.0 0.00 0.00 0.00 75 1019.6
20200531032007 67 307 0.0 0.0 0.00 0.00 0.00 75 1019.5
20200531031528 67 307 0.0 0.0 0.00 0.00 0.00 74 1019.6
20200531031004 67 307 0.0 0.0 0.00 0.00 0.00 75 1019.6
20200531030507 67 307 0.0 0.0 0.00 0.00 0.00 75 1019.6
20200531030008 67 307 0.0 0.0 0.00 0.00 0.00 74 1019.5
20200531025503 67 307 0.0 0.0 0.00 0.00 0.00 73 1019.5
20200531025004 67 307 0.0 0.0 0.00 0.00 0.00 73 1019.5
20200531024504 68 307 0.0 0.0 0.00 0.00 0.00 72 1019.4
20200531024010 68 307 0.0 0.0 0.00 0.00 0.00 72 1019.4
20200531023503 68 307 0.0 0.0 0.00 0.00 0.00 72 1019.3
20200531023021 68 307 0.0 0.0 0.00 0.00 0.00 72 1019.3
20200531022507 68 307 0.0 0.0 0.00 0.00 0.00 71 1019.2
20200531022006 68 307 0.0 0.0 0.00 0.00 0.00 71 1019.3
20200531021503 69 307 0.0 0.0 0.00 0.00 0.00 71 1019.3
20200531021002 69 307 0.0 0.0 0.00 0.00 0.00 70 1019.3
20200531020501 69 307 0.0 0.0 0.00 0.00 0.00 70 1019.3
20200531020004 69 307 0.0 0.0 0.00 0.00 0.00 69 1019.3
20200531015501 69 307 0.0 0.0 0.00 0.00 0.00 68 1019.1
20200531015002 69 307 0.0 0.0 0.00 0.00 0.00 68 1019.0
20200531014510 70 307 0.0 0.0 0.00 0.00 0.00 68 1018.9
20200531014001 70 307 0.0 0.0 0.00 0.00 0.00 67 1018.8
20200531013501 70 307 0.0 0.0 0.00 0.00 0.00 66 1018.8
20200531013001 70 307 0.0 0.0 0.00 0.00 0.00 66 1018.8
20200531012500 71 307 0.0 0.0 0.00 0.00 0.00 65 1018.8
20200531012001 71 307 0.0 0.0 0.00 0.00 0.00 65 1018.8
20200531011508 71 307 0.0 0.0 0.00 0.00 0.00 64 1018.7
20200531010601 72 307 0.0 1.7 0.00 0.00 0.00 64 1018.9
20200531010206 72 307 0.0 1.7 0.00 0.00 0.00 63 1018.8
20200531005604 72 307 0.0 1.7 0.00 0.00 0.00 62 1018.7
20200531005109 73 278 0.0 1.7 0.00 0.00 0.00 63 1018.6
20200531004638 73 278 0.0 1.7 0.00 0.00 0.00 61 1018.6
20200531004059 73 278 0.0 1.7 0.00 0.00 0.00 61 1018.6
20200531003602 74 278 0.0 1.7 0.00 0.00 0.00 59 1018.4
20200531003138 74 278 0.0 1.7 0.00 0.00 0.00 59 1018.3
20200531002600 75 278 0.0 1.7 0.00 0.00 0.00 58 1018.2
20200531002101 75 275 0.0 0.0 0.00 0.00 0.00 56 1018.2
20200531001631 76 275 0.0 0.9 0.00 0.00 0.00 55 1018.1
20200531001058 77 275 0.0 0.9 0.00 0.00 0.00 54 1018.1
20200531000604 77 275 0.0 0.9 0.00 0.00 0.00 53 1018.0
20200531000129 77 275 0.0 1.7 0.00 0.00 0.00 54 1017.8
20200530235558 77 275 0.0 1.7 0.00 0.00 0.00 54 1017.8
20200530235108 77 275 0.0 6.1 0.00 0.00 0.00 52 1017.7
20200530234645 78 232 1.7 5.2 0.00 0.00 0.00 50 1017.9
20200530234057 78 331 0.9 2.6 0.00 0.00 0.00 51 1018.0
20200530233557 78 330 0.0 2.6 0.00 0.00 0.00 49 1018.0
20200530233131 78 345 0.9 2.6 0.00 0.00 0.00 49 1018.0
20200530232557 79 332 0.9 2.6 0.00 0.00 0.00 49 1018.1
20200530232057 79 333 0.0 2.6 0.00 0.00 0.00 50 1018.1
20200530231914 79 9 0.9 3.5 0.00 0.00 0.00 47 1018.0
20200530231103 79 344 1.7 3.5 0.00 0.00 0.00 48 1018.0
20200530230559 79 342 0.0 2.6 0.00 0.00 0.00 53 1017.9
20200530230140 78 342 0.9 3.5 0.00 0.00 0.00 47 1017.7
20200530225556 78 32 0.9 4.3 0.00 0.00 0.00 47 1017.8
20200530225058 79 10 1.7 4.3 0.00 0.00 0.00 46 1017.9
20200530224624 79 336 0.9 4.3 0.00 0.00 0.00 46 1017.8
20200530224056 79 360 0.9 4.3 0.00 0.00 0.00 47 1017.9
20200530223603 79 52 1.7 4.3 0.00 0.00 0.00 48 1017.9
20200530223248 79 285 0.9 6.1 0.00 0.00 0.00 51 1017.8
20200530222558 79 270 1.7 7.0 0.00 0.00 0.00 52 1017.8
20200530222054 79 302 1.7 6.1 0.00 0.00 0.00 52 1017.9
20200530221717 79 360 0.9 3.5 0.00 0.00 0.00 51 1018.0
20200530221054 78 329 0.9 3.5 0.00 0.00 0.00 51 1018.1
20200530220553 79 319 1.7 7.8 0.00 0.00 0.00 51 1018.0
20200530220139 79 290 3.5 7.8 0.00 0.00 0.00 53 1017.8
20200530215554 79 332 0.9 3.5 0.00 0.00 0.00 56 1017.8
20200530215053 78 284 0.9 3.5 0.00 0.00 0.00 55 1017.8
20200530214621 77 333 0.0 1.7 0.00 0.00 0.00 56 1017.9
20200530214053 77 333 0.9 3.5 0.00 0.00 0.00 55 1017.8
20200530213556 78 333 0.9 4.3 0.00 0.00 0.00 51 1017.9
20200530213135 79 331 1.7 7.8 0.00 0.00 0.00 53 1017.8
20200530212553 79 290 2.6 7.8 0.00 0.00 0.00 52 1017.8
20200530212053 79 277 2.6 7.8 0.00 0.00 0.00 53 1017.7
20200530211729 79 260 3.5 7.8 0.00 0.00 0.00 52 1017.8
20200530211055 79 288 1.7 3.5 0.00 0.00 0.00 57 1017.9
20200530210551 78 309 0.9 2.6 0.00 0.00 0.00 53 1017.8
20200530210206 79 355 0.9 4.3 0.00 0.00 0.00 50 1017.8
20200530205555 80 355 0.9 7.0 0.00 0.00 0.00 50 1017.8
20200530205051 80 325 2.6 7.8 0.00 0.00 0.00 49 1018.0
20200530204734 80 271 4.3 7.8 0.00 0.00 0.00 50 1017.9
20200530204051 79 261 1.7 4.3 0.00 0.00 0.00 56 1017.9
20200530203550 79 339 1.7 3.5 0.00 0.00 0.00 51 1017.9
20200530203117 79 34 0.9 2.6 0.00 0.00 0.00 55 1018.0
20200530202551 79 30 0.9 3.5 0.00 0.00 0.00 53 1018.1
20200530202051 80 29 1.7 3.5 0.00 0.00 0.00 50 1018.1
20200530201618 80 315 0.9 6.1 0.00 0.00 0.00 50 1018.1
20200530201050 80 301 2.6 7.8 0.00 0.00 0.00 52 1018.1
20200530200549 80 300 3.5 7.8 0.00 0.00 0.00 52 1018.1
20200530200157 79 21 0.0 2.6 0.00 0.00 0.00 57 1018.2
20200530195549 79 32 0.9 4.3 0.00 0.00 0.00 56 1018.2
20200530195049 79 26 0.9 4.3 0.00 0.00 0.00 51 1018.2
20200530194619 80 298 0.9 4.3 0.00 0.00 0.00 48 1018.1
20200530194048 80 29 0.9 7.0 0.00 0.00 0.00 52 1018.1
20200530193547 80 331 2.6 7.0 0.00 0.00 0.00 54 1018.2
20200530193139 79 39 0.9 7.0 0.00 0.00 0.00 50 1018.1
20200530192547 78 243 0.9 6.1 0.00 0.00 0.00 53 1018.2
20200530192046 78 284 1.7 7.8 0.00 0.00 0.00 55 1018.3
20200530191629 79 315 3.5 7.0 0.00 0.00 0.00 51 1018.1
20200530191046 79 336 1.7 7.8 0.00 0.00 0.00 54 1018.2
20200530190549 78 310 1.7 5.2 0.00 0.00 0.00 58 1018.2
20200530190137 78 263 1.7 6.1 0.00 0.00 0.00 57 1018.3
20200530185544 77 263 2.6 6.1 0.00 0.00 0.00 53 1018.4
20200530185045 77 300 0.9 2.6 0.00 0.00 0.00 59 1018.5
20200530184640 77 334 0.0 3.5 0.00 0.00 0.00 58 1018.5
20200530184044 78 334 0.9 5.2 0.00 0.00 0.00 55 1018.5
20200530183544 79 259 0.9 3.5 0.00 0.00 0.00 56 1018.4
20200530183117 79 348 0.9 2.6 0.00 0.00 0.00 52 1018.4
20200530182544 78 331 0.0 2.6 0.00 0.00 0.00 59 1018.5
20200530182043 78 315 0.9 2.6 0.00 0.00 0.00 54 1018.5
20200530181607 78 321 0.9 2.6 0.00 0.00 0.00 55 1018.5
20200530181042 78 280 0.0 2.6 0.00 0.00 0.00 60 1018.6
20200530180544 78 329 0.9 2.6 0.00 0.00 0.00 57 1018.7
20200530180126 78 329 0.9 2.6 0.00 0.00 0.00 56 1018.7
20200530175547 77 279 0.0 4.3 0.00 0.00 0.00 56 1018.7
20200530175042 77 275 0.9 4.3 0.00 0.00 0.00 56 1018.8
20200530174608 78 321 0.0 5.2 0.00 0.00 0.00 52 1018.7
20200530174042 78 248 1.7 3.5 0.00 0.00 0.00 55 1018.8
20200530173543 77 360 0.0 2.6 0.00 0.00 0.00 54 1018.9
20200530173110 78 360 0.9 3.5 0.00 0.00 0.00 52 1019.1
20200530172542 78 328 0.9 3.5 0.00 0.00 0.00 51 1019.0
20200530172041 78 288 0.9 6.1 0.00 0.00 0.00 56 1018.9
20200530171621 78 339 1.7 5.2 0.00 0.00 0.00 54 1019.0
20200530171055 78 37 0.9 3.5 0.00 0.00 0.00 54 1019.0
20200530170541 77 33 0.9 5.2 0.00 0.00 0.00 56 1019.0
20200530170043 77 271 0.9 4.3 0.00 0.00 0.00 59 1018.9
20200530165541 77 17 1.7 7.0 0.00 0.00 0.00 54 1019.0
20200530165039 77 288 1.7 7.8 0.00 0.00 0.00 62 1019.0
20200530164553 77 342 0.9 9.6 0.00 0.00 0.00 55 1019.1
20200530164037 77 269 4.3 9.6 0.00 0.00 0.00 55 1019.0
20200530163542 77 288 0.9 4.3 0.00 0.00 0.00 58 1019.2
20200530163045 77 5 2.6 4.3 0.00 0.00 0.00 56 1019.4
20200530162545 77 57 0.9 4.3 0.00 0.00 0.00 54 1019.3
20200530162036 77 46 1.7 5.2 0.00 0.00 0.00 55 1019.3
20200530161559 77 30 0.9 5.2 0.00 0.00 0.00 58 1019.3
20200530161035 77 273 0.9 5.2 0.00 0.00 0.00 58 1019.3
20200530160537 77 286 1.7 8.7 0.00 0.00 0.00 63 1019.3
20200530160041 76 321 3.5 8.7 0.00 0.00 0.00 61 1019.5
20200530155531 76 263 2.6 8.7 0.00 0.00 0.00 65 1019.4
20200530155029 76 34 1.7 8.7 0.00 0.00 0.00 61 1019.3
20200530154546 75 269 3.5 8.7 0.00 0.00 0.00 67 1019.4
20200530154034 75 275 1.7 7.8 0.00 0.00 0.00 64 1019.5
20200530153542 75 331 0.9 5.2 0.00 0.00 0.00 66 1019.4
20200530153112 75 17 0.0 7.0 0.00 0.00 0.00 68 1019.4
20200530152528 75 282 0.9 7.0 0.00 0.00 0.00 69 1019.4
20200530152033 76 281 2.6 7.0 0.00 0.00 0.00 70 1019.4
20200530151607 75 14 0.9 3.5 0.00 0.00 0.00 66 1019.4
20200530151029 75 5 0.9 3.5 0.00 0.00 0.00 70 1019.5
20200530150530 75 279 0.9 4.3 0.00 0.00 0.00 70 1019.5
20200530150042 75 328 1.7 4.3 0.00 0.00 0.00 71 1019.6
20200530145527 75 32 0.0 3.5 0.00 0.00 0.00 70 1019.6
20200530145029 74 312 0.9 3.5 0.00 0.00 0.00 70 1019.6
20200530144533 74 267 0.0 5.2 0.00 0.00 0.00 74 1019.6
20200530144035 73 288 0.9 5.2 0.00 0.00 0.00 78 1019.6
20200530143527 74 303 1.7 4.3 0.00 0.00 0.00 75 1019.5
20200530143022 73 13 0.0 3.5 0.00 0.00 0.00 74 1019.6
20200530142520 73 267 0.9 3.5 0.00 0.00 0.00 77 1019.6
20200530142019 73 355 0.9 4.3 0.00 0.00 0.00 75 1019.6
20200530141530 72 5 0.0 6.1 0.00 0.00 0.00 77 1019.7
20200530141016 72 281 1.7 6.1 0.00 0.00 0.00 77 1019.7
20200530140515 72 285 0.9 4.3 0.00 0.00 0.00 82 1019.7
20200530140014 71 337 0.0 3.5 0.00 0.00 0.00 83 1019.8
20200530135514 70 281 0.9 4.3 0.00 0.00 0.00 85 1019.7
20200530135030 70 285 0.9 4.3 0.00 0.00 0.00 85 1019.6
20200530134511 70 283 0.9 5.2 0.00 0.00 0.00 85 1019.7
20200530134010 70 309 0.9 4.3 0.00 0.00 0.00 86 1019.8
20200530133519 69 287 0.0 4.3 0.00 0.00 0.00 88 1019.8
20200530133010 69 270 0.0 6.1 0.00 0.00 0.00 88 1019.8
20200530132506 68 270 0.9 6.1 0.00 0.00 0.00 90 1019.8
20200530132006 68 342 0.0 0.0 0.00 0.00 0.00 91 1019.8
20200530131517 67 286 0.0 0.0 0.00 0.00 0.00 91 1019.7
20200530131002 67 320 0.0 0.0 0.00 0.00 0.00 91 1019.7
20200530130501 66 295 0.0 0.0 0.00 0.00 0.00 91 1019.7
20200530130211 66 315 0.0 0.0 0.00 0.00 0.00 92 1019.7
20200530125637 66 195 0.0 0.0 0.00 0.00 0.00 93 1019.7
20200530125058 65 21 0.0 0.0 0.00 0.00 0.00 93 1019.5
20200530124659 65 21 0.0 0.0 0.00 0.00 0.00 94 1019.6
20200530124058 65 21 0.0 0.0 0.00 0.00 0.00 94 1019.4
20200530123557 64 21 0.0 0.0 0.00 0.00 0.00 94 1019.3
20200530123120 64 21 0.0 0.0 0.00 0.00 0.00 94 1019.3
20200530122557 64 21 0.0 0.0 0.00 0.00 0.00 94 1019.3
20200530122058 63 21 0.0 0.0 0.00 0.00 0.00 94 1019.2
20200530121717 63 21 0.0 0.0 0.00 0.00 0.00 95 1019.2
20200530121057 63 21 0.0 0.0 0.00 0.00 0.00 94 1019.2
20200530120557 63 30 0.0 0.0 0.00 0.00 0.00 95 1019.2
20200530120246 63 38 0.0 0.0 0.00 0.00 0.00 95 1019.3
20200530115608 63 38 0.0 0.0 0.00 0.00 0.00 96 1019.3
20200530115056 62 38 0.0 0.0 0.00 0.00 0.00 95 1019.2
20200530114627 62 36 0.0 0.0 0.00 0.00 0.00 95 1019.1
20200530114108 62 36 0.0 0.0 0.00 0.00 0.00 95 1019.0
20200530113614 62 32 0.0 0.9 0.00 0.00 0.00 95 1019.3
20200530113149 62 32 0.0 0.9 0.00 0.00 0.00 95 1019.1
20200530112554 62 344 0.0 0.9 0.00 0.00 0.00 95 1019.2
20200530112056 61 344 0.0 0.9 0.00 0.00 0.00 96 1019.2
20200530111713 61 344 0.0 0.0 0.00 0.00 0.00 95 1019.2
20200530111053 61 344 0.0 0.0 0.00 0.00 0.00 95 1019.0
20200530110604 61 344 0.0 0.0 0.00 0.00 0.00 95 1019.0
20200530110117 61 344 0.0 0.0 0.00 0.00 0.00 94 1019.0
20200530105555 61 344 0.0 0.0 0.00 0.00 0.00 94 1018.9
20200530105054 61 344 0.0 0.0 0.00 0.00 0.00 94 1018.9
20200530104624 61 344 0.0 0.0 0.00 0.00 0.00 94 1018.9
20200530104050 61 344 0.0 0.0 0.00 0.00 0.00 94 1018.9
20200530103549 61 344 0.0 0.0 0.00 0.00 0.00 94 1018.8
20200530103128 62 344 0.0 0.0 0.00 0.00 0.00 94 1018.9
20200530102610 62 344 0.0 0.0 0.00 0.00 0.00 95 1018.8
20200530102048 62 344 0.0 0.0 0.00 0.00 0.00 95 1018.8
20200530101611 62 344 0.0 0.0 0.00 0.00 0.00 95 1018.7
20200530101537 62 344 0.0 0.0 0.00 0.00 0.00 95 1018.8
20200530101047 62 344 0.0 0.0 0.00 0.00 0.00 95 1018.7
20200530100545 62 344 0.0 0.0 0.00 0.00 0.00 95 1018.7
20200530100152 62 344 0.0 0.0 0.00 0.00 0.00 94 1018.6
20200530095551 62 344 0.0 0.0 0.00 0.00 0.00 94 1018.6
20200530094611 62 344 0.0 0.0 0.00 0.00 0.00 93 1018.4
20200530094043 62 344 0.0 0.0 0.00 0.00 0.00 93 1018.4
20200530093541 63 344 0.0 0.0 0.00 0.00 0.00 93 1018.3
20200530093101 63 344 0.0 0.0 0.00 0.00 0.00 94 1018.4
20200530093019 63 344 0.0 0.0 0.00 0.00 0.00 94 1018.3
20200530092550 63 344 0.0 0.0 0.00 0.00 0.00 94 1018.3
20200530092050 63 344 0.0 0.0 0.00 0.00 0.00 94 1018.3
20200530091603 63 344 0.0 0.0 0.00 0.00 0.00 94 1018.3
20200530091040 63 344 0.0 0.0 0.00 0.00 0.00 94 1018.3
20200530090539 63 344 0.0 0.9 0.00 0.00 0.00 94 1018.3
20200530090110 63 344 0.0 0.9 0.00 0.00 0.00 94 1018.2
20200530085539 63 344 0.0 0.9 0.00 0.00 0.00 94 1018.3
20200530085040 63 344 0.0 1.7 0.00 0.00 0.00 94 1018.3
20200530084631 63 344 0.0 1.7 0.00 0.00 0.00 94 1018.2
20200530084038 63 346 0.0 1.7 0.00 0.00 0.00 94 1018.2
20200530083542 63 5 0.0 1.7 0.00 0.00 0.00 94 1018.1
20200530083140 63 5 0.0 0.0 0.00 0.00 0.00 94 1018.0
20200530082537 63 5 0.0 0.0 0.00 0.00 0.00 94 1018.0
20200530082037 63 5 0.0 0.0 0.00 0.00 0.00 94 1018.0